Location: Asheville, NC
(35.6000°N, 82.5500°W)
Time: 08:39:17
(UTC-04:00)

OTV 5 (USA 277) - Pass Details

Date: 15 October 2017
Orbit: 404 x 417 km, 43.0° (Epoch: 07 September)

Event Time Altitude Azimuth Distance (km) Brightness Sun altitude
Rises 20:18:13 0° 291° (WNW) 2,350 ? -17.8°
Reaches altitude 10° 20:20:39 10° 307° (NW) 1,488 ? -18.3°
Maximum altitude 20:23:21 22° 1° (N) 962 ? -18.9°
Enters shadow 20:23:45 22° 12° (NNE) 976 ? -18.9°
